Weather reports worldwide

Advertisment
Amsterdam Airport, Netherlands (6240): temperature & dewpoint: 20.05.2019 02:00:00 - 26.05.2019 02:00:00 (CEST)Amsterdam Airport, Netherlands (6240): temperature 5cm: 20.05.2019 02:00:00 - 26.05.2019 02:00:00 (CEST)Amsterdam Airport, Netherlands (6240): wind speed & gusts: 20.05.2019 02:00:00 - 26.05.2019 02:00:00 (CEST)Amsterdam Airport, Netherlands (6240): wind direction: 20.05.2019 02:00:00 - 26.05.2019 02:00:00 (CEST)Amsterdam Airport, Netherlands (6240): reduced air pressure: 20.05.2019 02:00:00 - 26.05.2019 02:00:00 (CEST)Amsterdam Airport, Netherlands (6240): visibility: 20.05.2019 02:00:00 - 26.05.2019 02:00:00 (CEST)Amsterdam Airport, Netherlands (6240): precipitation: 20.05.2019 02:00:00 - 26.05.2019 02:00:00 (CEST)
Date & Time tt [°C] td [°C] tt 5cm [°C] ff [km/h] ff [kn] fx [km/h] fx [kn] dd ppp [hPa] vv [km] rr [mm]
26.05.2019 02:00:00 9,0 8,0 - 9 5 - - SSW - 10 -
26.05.2019 01:00:00 9,9 8,0 5,1 9 5 11 6 SSW 1016,6 10 0,0
26.05.2019 00:00:00 10,4 8,0 6,5 9 5 11 6 W 1017,3 10 0,0
25.05.2019 23:00:00 11,0 7,6 7,0 9 5 14 8 W 1017,4 10 0,0
25.05.2019 22:00:00 12,1 6,9 8,5 8 4 11 6 WNW 1017,4 10 0,0
25.05.2019 21:00:00 13,5 7,2 12,4 8 4 18 10 NW 1017,1 10 0,0
25.05.2019 20:00:00 15,1 7,6 15,3 13 7 22 12 NW 1017,4 10 0,0
25.05.2019 19:00:00 15,7 8,4 17,4 11 6 22 12 W 1017,4 10 0,0
25.05.2019 18:00:00 17,0 9,6 17,8 13 7 18 10 W 1017,4 10 0,0
25.05.2019 17:00:00 16,4 9,2 18,1 15 8 25 14 NW 1017,9 10 0,0
25.05.2019 16:00:00 16,9 9,6 19,5 13 7 25 14 WNW 1017,8 10 0,0
25.05.2019 15:00:00 16,0 9,7 16,9 21 11 25 14 NW 1018,1 10 0,0
25.05.2019 14:00:00 17,0 8,9 23,8 5 3 14 8 SSW 1018,2 10 0,0
25.05.2019 13:00:00 16,5 9,4 20,0 4 2 14 8 - 1018,1 10 0,0
25.05.2019 12:00:00 15,0 8,5 17,6 5 3 14 8 NW 1018,5 10 0,0
25.05.2019 11:00:00 14,6 8,7 16,0 5 3 14 8 NNW 1018,6 10 0,0
25.05.2019 10:00:00 13,2 8,5 15,5 8 4 14 8 N 1018,5 10 0,0
25.05.2019 09:00:00 12,7 8,7 13,5 8 4 14 8 NNE 1018,0 10 0,0
25.05.2019 08:00:00 11,6 8,7 10,4 8 4 11 6 N 1017,7 10 0,0
25.05.2019 07:00:00 11,0 8,4 9,7 8 4 11 6 NNW 1017,6 10 0,0
25.05.2019 06:00:00 10,6 8,4 9,3 5 3 11 6 N 1017,3 10 0,0
25.05.2019 05:00:00 10,8 8,6 9,4 4 2 7 4 - 1017,1 10 0,0
25.05.2019 04:00:00 10,4 8,7 8,0 8 4 11 6 WNW 1017,2 10 0,0
25.05.2019 03:00:00 9,0 7,8 2,9 5 3 7 4 NW 1017,3 10 0,0
25.05.2019 02:00:00 8,4 7,2 4,5 8 4 11 6 NW 1017,2 10 0,0
25.05.2019 01:00:00 8,6 7,1 5,9 9 5 11 6 NW 1017,2 10 0,0
25.05.2019 00:00:00 9,2 7,2 5,2 8 4 11 6 NW 1017,0 10 0,0
24.05.2019 23:00:00 9,7 7,4 7,7 9 5 22 12 NNW 1017,0 10 0,0
24.05.2019 22:00:00 10,6 8,1 9,3 13 7 25 14 NNW 1016,9 10 0,0
24.05.2019 21:00:00 12,1 8,2 11,5 16 9 29 16 NW 1016,5 10 0,0
24.05.2019 20:00:00 13,9 8,0 14,4 18 10 29 16 NW 1016,1 10 0,0
24.05.2019 19:00:00 14,9 7,5 16,6 21 11 32 18 NW 1015,9 10 0,0
24.05.2019 18:00:00 16,4 2,6 18,8 22 12 32 18 NNW 1015,9 10 0,0
24.05.2019 17:00:00 16,5 4,1 19,1 22 12 32 18 WNW 1016,3 10 0,0
24.05.2019 16:00:00 17,1 5,5 20,1 22 12 40 21 NW 1016,2 10 0,0
24.05.2019 15:00:00 18,1 4,8 20,7 24 13 32 18 WNW 1016,0 10 0,0
24.05.2019 14:00:00 18,7 7,7 21,7 22 12 36 19 NW 1015,5 10 0,0
24.05.2019 13:00:00 19,6 8,5 23,1 16 9 25 14 WNW 1015,2 10 0,0
24.05.2019 12:00:00 19,0 9,7 22,2 11 6 22 12 WNW 1014,9 10 0,0
24.05.2019 11:00:00 17,5 11,3 20,9 11 6 25 14 W 1014,8 10 0,0
24.05.2019 10:00:00 16,7 11,5 19,2 15 8 22 12 W 1014,7 10 0,0
24.05.2019 09:00:00 15,5 9,8 16,0 18 10 25 14 W 1014,6 10 0,0
24.05.2019 08:00:00 15,2 8,0 14,0 16 9 29 16 WSW 1014,4 10 0,0
24.05.2019 07:00:00 14,3 8,1 11,0 16 9 25 14 WSW 1014,4 10 0,0
24.05.2019 06:00:00 11,5 8,8 7,6 13 7 14 8 SW 1014,3 10 0,0
24.05.2019 05:00:00 11,7 8,3 4,5 9 5 14 8 S 1014,2 10 0,0
24.05.2019 04:00:00 10,3 8,4 3,8 4 2 7 4 - 1014,4 10 0,0
24.05.2019 03:00:00 11,3 8,9 5,3 2 1 7 4 SE 1014,8 10 0,0
24.05.2019 02:00:00 11,1 8,2 5,1 4 2 7 4 E 1015,0 10 0,0
24.05.2019 01:00:00 11,6 8,8 5,0 5 3 7 4 ENE 1015,3 10 0,0
24.05.2019 00:00:00 12,5 8,7 5,4 2 1 4 2 NE 1015,6 10 0,0
23.05.2019 23:00:00 12,5 8,6 6,3 4 2 4 2 E 1015,8 10 0,0
23.05.2019 22:00:00 15,4 7,8 8,6 4 2 7 4 - 1015,9 10 0,0
23.05.2019 21:00:00 16,9 7,7 13,9 0 0 11 6 N 1015,9 10 0,0
23.05.2019 20:00:00 18,0 6,3 17,4 9 5 22 12 W 1016,1 10 0,0
23.05.2019 19:00:00 18,7 6,6 18,7 21 11 25 14 W 1016,4 10 0,0
23.05.2019 18:00:00 19,5 6,6 20,7 18 10 25 14 WSW 1016,6 10 0,0
23.05.2019 17:00:00 19,4 6,2 22,8 16 9 25 14 W 1016,9 10 0,0
23.05.2019 16:00:00 19,1 3,8 21,6 21 11 36 19 W 1017,2 10 0,0
23.05.2019 15:00:00 19,7 6,4 23,4 24 13 36 19 W 1017,2 10 0,0
23.05.2019 14:00:00 19,3 4,7 22,5 24 13 36 19 W 1017,2 10 0,0
23.05.2019 13:00:00 19,5 5,8 22,8 26 14 43 23 W 1017,5 10 0,0
23.05.2019 12:00:00 19,9 8,2 22,8 22 12 32 18 SSW 1017,6 10 0,0
23.05.2019 11:00:00 19,0 6,7 21,2 21 11 32 18 SSW 1017,7 10 0,0
23.05.2019 10:00:00 17,5 6,5 18,2 21 11 29 16 SSW 1018,0 10 0,0
23.05.2019 09:00:00 15,4 7,4 14,4 16 9 25 14 SSW 1018,1 10 0,0
23.05.2019 08:00:00 12,8 6,7 10,3 11 6 18 10 S 1018,1 10 0,0
23.05.2019 07:00:00 10,5 6,9 6,0 9 5 14 8 S 1018,0 10 0,0
23.05.2019 06:00:00 8,9 6,1 4,2 11 6 11 6 SSE 1018,0 10 0,0
23.05.2019 05:00:00 8,9 6,0 3,4 9 5 11 6 SSE 1018,4 10 0,0
23.05.2019 04:00:00 9,2 6,0 2,7 9 5 11 6 SSE 1018,7 10 0,0
23.05.2019 03:00:00 8,9 6,2 2,5 5 3 7 4 SSE 1018,9 10 0,0
23.05.2019 02:00:00 8,1 6,0 2,6 8 4 7 4 SSE 1019,1 10 0,0
23.05.2019 01:00:00 9,7 6,8 2,9 5 3 7 4 SE 1019,4 10 0,0
23.05.2019 00:00:00 9,9 6,7 3,6 4 2 7 4 SSE 1019,6 10 0,0
22.05.2019 23:00:00 12,1 6,5 4,9 5 3 7 4 SSE 1019,7 10 0,0
22.05.2019 22:00:00 12,6 5,3 7,7 4 2 11 6 NE 1019,7 10 0,0
22.05.2019 21:00:00 14,7 6,2 12,5 4 2 14 8 NW 1019,6 10 0,0
22.05.2019 20:00:00 14,0 6,3 13,7 8 4 22 12 NW 1019,8 10 0,0
22.05.2019 19:00:00 15,9 5,9 17,0 13 7 25 14 NW 1020,0 10 0,0
22.05.2019 18:00:00 15,7 5,5 16,3 16 9 32 18 NW 1020,0 10 0,0
22.05.2019 17:00:00 17,4 3,3 20,1 18 10 32 18 N 1019,9 36 0,0
22.05.2019 16:00:00 16,3 9,7 19,0 15 8 25 14 WNW 1019,8 10 0,0
22.05.2019 15:00:00 16,2 10,4 20,1 18 10 36 19 WNW 1019,8 10 0,0
22.05.2019 14:00:00 16,6 9,7 20,3 29 16 43 23 W 1019,8 10 0,0
22.05.2019 13:00:00 16,8 9,3 22,2 13 7 25 14 SSW 1019,7 10 0,0
22.05.2019 12:00:00 15,5 9,7 18,6 9 5 18 10 W 1019,8 10 0,0
22.05.2019 11:00:00 14,2 8,9 17,8 9 5 22 12 - 1019,7 10 0,0
22.05.2019 10:00:00 13,5 8,8 15,1 9 5 18 10 NW 1019,7 10 0,0
22.05.2019 09:00:00 12,4 8,4 12,6 11 6 18 10 WNW 1019,5 10 0,0
22.05.2019 08:00:00 11,0 7,8 9,8 13 7 22 12 NW 1019,4 10 0,0
22.05.2019 07:00:00 10,4 7,8 9,0 13 7 22 12 WNW 1019,1 10 0,0
22.05.2019 06:00:00 10,2 7,0 9,2 16 9 25 14 WNW 1018,8 10 0,0
22.05.2019 05:00:00 10,6 7,6 10,1 13 7 25 14 NW 1018,7 10 0,0
22.05.2019 04:00:00 10,6 7,9 10,2 13 7 18 10 WNW 1018,7 10 0,0
22.05.2019 03:00:00 10,7 7,8 10,2 15 8 22 12 WNW 1018,5 10 0,0
22.05.2019 02:00:00 10,6 7,6 10,2 18 10 29 16 NW 1018,3 10 0,0
22.05.2019 01:00:00 10,9 8,0 10,5 15 8 22 12 NW 1018,3 10 0,0
22.05.2019 00:00:00 11,2 8,7 10,7 15 8 25 14 NW 1018,1 10 0,0
21.05.2019 23:00:00 11,2 8,9 10,9 15 8 29 16 NNW 1017,9 10 0,0
21.05.2019 22:00:00 11,4 9,6 11,2 18 10 29 16 NW 1017,7 10 0,0
21.05.2019 21:00:00 11,5 10,2 11,3 22 12 36 19 NW 1017,3 9 0,0
21.05.2019 20:00:00 11,5 10,3 11,4 28 15 40 21 NW 1016,9 9 0,0
21.05.2019 19:00:00 11,6 10,2 11,6 25 14 40 21 NW 1016,7 9 0,0
21.05.2019 18:00:00 11,9 10,2 11,8 28 15 40 21 NW 1016,5 10 0,0
21.05.2019 17:00:00 12,0 10,1 12,3 28 15 40 21 NW 1016,2 10 0,0
21.05.2019 16:00:00 11,8 10,2 12,1 31 17 43 23 WNW 1015,9 10 0,0
21.05.2019 15:00:00 12,1 10,4 12,6 26 14 40 21 NW 1015,5 10 0,0
21.05.2019 14:00:00 12,6 10,6 13,0 24 13 36 19 NW 1015,3 10 0,0
21.05.2019 13:00:00 12,2 10,6 12,5 24 13 40 21 NW 1014,9 10 0,0
21.05.2019 12:00:00 12,6 10,5 12,8 26 14 43 23 NW 1014,6 10 0,0
21.05.2019 11:00:00 11,9 10,5 11,9 24 13 40 21 NW 1014,1 10 0,0
21.05.2019 10:00:00 11,6 10,6 11,7 26 14 43 23 NW 1013,7 10 0,0
21.05.2019 09:00:00 11,5 10,8 11,6 28 15 43 23 NW 1013,2 6 0,0
21.05.2019 08:00:00 11,2 10,8 11,2 22 12 43 23 NW 1012,8 5 0,0
21.05.2019 07:00:00 11,0 10,6 10,8 28 15 40 21 NW 1012,5 3,5 0,0
21.05.2019 06:00:00 10,6 10,4 10,6 29 16 40 21 NW 1012,2 3,0 0,0
21.05.2019 05:00:00 10,7 10,5 10,7 24 13 36 19 NW 1011,9 2,2 0,0
21.05.2019 04:00:00 10,8 10,6 10,7 21 11 40 21 NW 1011,8 3,0 0,0
21.05.2019 03:00:00 11,4 11,1 11,3 21 11 32 18 NW 1011,5 2,2 0,0
21.05.2019 02:00:00 11,6 11,4 11,5 21 11 32 18 NW 1011,7 2,7 0,0
21.05.2019 01:00:00 11,6 11,2 11,5 24 13 32 18 NNW 1011,6 4,0 0,0
21.05.2019 00:00:00 11,4 11,1 11,2 22 12 32 18 NW 1011,7 3,5 0,0
20.05.2019 23:00:00 11,2 11,0 11,2 18 10 36 19 NNW 1011,7 2,5 0,0
20.05.2019 22:00:00 11,2 10,9 11,2 24 13 32 18 NW 1011,2 2,2 0,0
20.05.2019 21:00:00 11,5 11,1 11,7 22 12 36 19 NW 1010,8 2,8 0,0
20.05.2019 20:00:00 12,6 11,5 12,6 22 12 29 16 NW 1010,1 7 0,0
20.05.2019 19:00:00 12,7 11,3 13,0 22 12 32 18 NW 1010,0 8 0,0
20.05.2019 18:00:00 13,5 11,6 14,2 22 12 32 18 NW 1009,9 9 0,0
20.05.2019 17:00:00 13,3 11,8 13,8 22 12 32 18 NW 1009,7 6 0,0
20.05.2019 16:00:00 14,0 12,2 15,1 24 13 32 18 NW 1009,4 7 0,0
20.05.2019 15:00:00 14,4 11,8 16,1 21 11 32 18 NW 1009,4 9 0,0
20.05.2019 14:00:00 14,1 12,0 14,8 18 10 29 16 NW 1009,2 9 0,0
20.05.2019 13:00:00 12,9 11,6 13,7 18 10 32 18 NNW 1009,0 7 0,0
20.05.2019 12:00:00 12,7 11,5 13,5 21 11 29 16 NW 1008,8 7 0,0
20.05.2019 11:00:00 13,0 11,6 13,5 21 11 32 18 NW 1008,2 6 0,0
20.05.2019 10:00:00 12,9 11,6 13,7 15 8 25 14 NW 1008,2 7 0,0
20.05.2019 09:00:00 12,5 11,8 12,9 13 7 18 10 NW 1007,8 5 0,0
20.05.2019 08:00:00 12,1 11,7 12,2 13 7 25 14 NNW 1007,6 4,0 0,0
20.05.2019 07:00:00 11,9 11,6 11,9 15 8 18 10 NNW 1007,3 3,0 0,0
20.05.2019 06:00:00 12,1 11,6 12,0 11 6 18 10 NNW 1007,2 3,0 0,0
20.05.2019 05:00:00 12,1 11,4 11,9 11 6 14 8 NW 1006,8 5 0,0
20.05.2019 04:00:00 12,3 11,6 12,1 9 5 18 10 N 1006,8 4,5 0,0
20.05.2019 03:00:00 11,8 11,4 11,6 8 4 18 10 N 1007,2 4,0 0,0
20.05.2019 02:00:00 11,6 11,3 11,6 13 7 18 10 NNW 1007,3 3,5 0,0

tt = temperature
td = dewpoint
tt 5cm = temperature 5cm
ff = wind speed
fx = gusts
dd = wind direction
ppp = reduced air pressure
vv = visibility
rr = precipitation

Next stations